PBO Station Position Time Series. Reference Frame : NAM14
Format Version,1.1.1
4-character ID,EUCH
Station name,EuchreMtn_OR2021
Begin Date, 2021-03-31
End Date, 2023-06-26
Release Date, 2023-06-27
Reference position, 44.8347424382 North Latitude, -123.8708097527 East Longitude, 721.91123 meters elevation,
Date, North (mm), East (mm), Vertical (mm), North Std. Deviation (mm), East Std. Deviation (mm),              Vertical Std. Deviation (mm), Quality,
2021-03-31,0.00, 0.00, 0.00, 1.97, 1.50, 7.09, suppf,
2021-04-01,-0.55, -1.40, 0.12, 2.00, 1.52, 7.14, suppf,
2021-04-02,0.15, -1.50, 6.78, 1.99, 1.51, 7.16, suppf,
2021-04-03,-0.96, -0.70, 4.62, 1.95, 1.47, 6.96, suppf,
2021-04-04,0.05, -0.85, 5.28, 1.96, 1.51, 7.13, suppf,
2021-04-05,-0.03, -1.04, 11.49, 1.95, 1.49, 7.04, suppf,
2021-04-06,-0.62, -1.25, 7.34, 1.97, 1.51, 7.14, suppf,
2021-04-07,0.27, -0.96, 5.91, 1.96, 1.50, 7.09, suppf,
2021-04-08,-0.70, 0.23, 6.09, 1.99, 1.50, 7.06, suppf,
2021-04-09,0.14, -0.31, 7.12, 2.00, 1.51, 7.15, suppf,
2021-04-10,-0.55, -0.36, 3.69, 1.96, 1.50, 7.06, suppf,
2021-04-11,-0.45, 0.35, 9.43, 1.96, 1.51, 7.13, suppf,
2021-04-12,-0.17, -0.39, 4.30, 1.98, 1.56, 7.18, suppf,
2021-04-13,0.36, -0.41, 1.48, 1.99, 1.55, 7.19, suppf,
2021-04-14,-1.51, -1.48, 10.67, 1.99, 1.56, 7.22, suppf,
2021-04-15,-1.23, -1.08, 9.85, 1.99, 1.56, 7.24, suppf,
2021-04-16,0.37, -1.18, 9.10, 1.99, 1.56, 7.25, suppf,
2021-04-17,-0.10, -0.93, 8.75, 1.98, 1.56, 7.23, suppf,
2021-04-18,-0.85, -1.80, 12.53, 1.98, 1.56, 7.21, suppf,
2021-04-19,-0.86, -3.46, 13.59, 2.03, 1.61, 7.45, suppf,
2021-04-20,-0.27, -2.72, 14.52, 2.00, 1.56, 7.30, suppf,
2021-04-21,-2.04, -4.43, 15.98, 1.98, 1.55, 7.20, suppf,
2021-04-22,-0.03, -5.17, 19.40, 2.01, 1.62, 7.39, suppf,
2021-04-23,-0.88, -4.63, 23.42, 2.02, 1.63, 7.47, suppf,
2021-04-24,-1.07, -4.58, 20.81, 1.96, 1.51, 7.14, suppf,
2021-04-25,-1.01, -4.58, 17.40, 1.95, 1.50, 7.09, suppf,
2021-04-26,-1.36, -5.78, 16.92, 1.97, 1.50, 7.13, suppf,
2021-04-27,-0.63, -5.13, 12.44, 1.97, 1.54, 7.20, suppf,
2021-04-28,-1.46, -4.17, 18.08, 1.99, 1.56, 7.32, suppf,
2021-04-29,-1.23, -3.36, 12.28, 1.97, 1.51, 7.18, suppf,
2021-04-30,-0.23, -5.82, 9.43, 1.96, 1.50, 7.11, suppf,
2021-05-01,-0.08, -6.34, 13.34, 2.01, 1.53, 7.29, suppf,
2021-05-02,0.11, -5.08, 10.67, 1.96, 1.49, 7.08, suppf,
2021-05-03,-1.91, -6.01, 11.92, 1.96, 1.50, 7.09, suppf,
2021-05-04,-0.46, -4.37, 12.59, 1.95, 1.50, 7.10, suppf,
2021-05-05,-2.47, -4.10, 15.05, 1.96, 1.50, 7.10, suppf,
2021-05-06,-0.54, -5.19, 14.14, 1.99, 1.52, 7.31, suppf,
2021-05-07,-0.76, -4.91, 5.21, 1.95, 1.49, 7.05, suppf,
2021-05-08,-0.95, -4.96, 9.72, 1.96, 1.48, 7.06, suppf,
2021-05-09,-0.08, -4.85, 3.32, 1.94, 1.48, 6.99, suppf,
2021-05-10,-1.73, -4.76, 10.32, 1.96, 1.48, 7.06, suppf,
2021-05-11,-0.90, -5.32, 4.44, 1.96, 1.48, 7.05, suppf,
2021-05-12,-0.85, -6.26, 9.76, 1.95, 1.46, 6.99, suppf,
2021-05-13,-0.79, -7.60, 0.38, 1.98, 1.50, 7.16, suppf,
2021-05-14,-1.61, -5.98, 4.02, 1.96, 1.46, 6.99, suppf,
2021-05-15,-1.67, -5.96, 5.07, 1.96, 1.47, 7.00, suppf,
2021-05-16,-1.58, -5.73, 14.62, 1.95, 1.47, 6.99, suppf,
2021-05-17,-1.13, -6.10, 4.89, 1.96, 1.47, 6.99, suppf,
2021-05-18,-0.47, -6.06, 13.37, 1.96, 1.47, 7.01, suppf,
2021-05-19,-1.07, -6.40, 7.28, 2.01, 1.50, 7.21, suppf,
2021-05-20,-2.91, -5.12, 7.89, 2.08, 1.55, 7.39, suppf,
2021-05-21,-1.22, -6.00, 8.52, 2.03, 1.51, 7.20, suppf,
2021-05-22,-2.97, -4.77, 7.91, 2.00, 1.50, 7.18, suppf,
2021-05-23,0.04, -5.74, 12.67, 1.97, 1.47, 7.06, suppf,
2021-05-24,-1.06, -5.31, 9.59, 2.00, 1.47, 7.11, suppf,
2021-05-25,0.41, -5.10, 7.34, 1.96, 1.47, 7.03, suppf,
2021-05-26,-0.67, -6.06, 8.41, 1.97, 1.48, 7.06, suppf,
2021-05-27,-1.79, -5.65, 16.64, 2.00, 1.50, 7.22, suppf,
2021-05-28,-1.91, -4.56, 13.43, 2.02, 1.49, 7.20, suppf,
2021-05-29,-1.18, -6.02, 13.24, 1.97, 1.47, 7.01, suppf,
2021-05-30,-1.76, -6.09, 17.16, 2.00, 1.49, 7.13, suppf,
2021-05-31,-0.47, -5.32, 12.13, 1.97, 1.47, 7.02, suppf,
2021-06-01,0.03, -6.00, 8.49, 1.95, 1.47, 6.95, suppf,
2021-06-02,-2.23, -5.41, 12.68, 1.97, 1.46, 6.99, suppf,
2021-06-03,-1.14, -5.52, 13.08, 2.00, 1.49, 7.17, suppf,
2021-06-04,0.01, -6.29, 14.18, 1.97, 1.48, 7.06, suppf,
2021-06-05,-0.21, -5.82, 16.65, 1.98, 1.48, 7.06, suppf,
2021-06-06,0.52, -6.02, 12.85, 2.00, 1.48, 7.15, suppf,
2021-06-07,-1.80, -5.41, 16.86, 1.98, 1.48, 7.08, suppf,
2021-06-08,-0.53, -7.92, 9.55, 1.99, 1.49, 7.12, suppf,
2021-06-09,-0.23, -6.04, 10.02, 2.00, 1.49, 7.15, suppf,
2021-06-10,-0.18, -5.60, 7.85, 2.05, 1.54, 7.23, suppf,
2021-06-11,0.40, -5.78, 13.32, 2.05, 1.54, 7.26, suppf,
2021-06-12,0.44, -7.18, 7.92, 1.99, 1.48, 7.09, suppf,
2021-06-13,0.07, -6.64, 6.02, 1.99, 1.48, 7.09, suppf,
2021-06-14,0.02, -6.71, 12.33, 2.04, 1.52, 7.29, suppf,
2021-06-15,-1.92, -4.19, 11.48, 2.03, 1.50, 7.19, suppf,
2021-06-16,0.71, -5.02, 10.93, 2.01, 1.48, 7.12, suppf,
2021-06-17,-0.08, -5.85, 9.10, 2.00, 1.50, 7.09, suppf,
2021-06-18,1.07, -6.71, 8.81, 1.98, 1.46, 6.96, suppf,
2021-06-19,0.10, -7.21, 6.64, 2.00, 1.47, 7.05, suppf,
2021-06-20,0.22, -6.49, 7.08, 1.98, 1.47, 7.02, suppf,
2021-06-21,-1.03, -5.78, 15.16, 2.02, 1.50, 7.20, suppf,
2021-06-22,-1.43, -6.47, 18.32, 2.01, 1.47, 7.03, suppf,
2021-06-23,-0.22, -4.46, 10.13, 2.01, 1.48, 7.07, suppf,
2021-06-24,-0.53, -5.97, 14.38, 2.02, 1.50, 7.17, suppf,
2021-06-25,-1.14, -5.62, 12.20, 2.02, 1.49, 7.12, suppf,
2021-06-26,-0.07, -6.00, 15.93, 2.02, 1.50, 7.13, suppf,
2021-06-27,-0.53, -6.10, 10.25, 2.00, 1.48, 7.04, suppf,
2021-06-28,-1.51, -5.85, 15.33, 2.00, 1.48, 7.02, suppf,
2021-06-29,-0.26, -6.53, 9.53, 2.00, 1.48, 7.02, suppf,
2021-06-30,-2.28, -5.82, 7.29, 2.02, 1.48, 7.08, suppf,
2021-07-01,-0.98, -5.07, 17.09, 2.05, 1.54, 7.27, suppf,
2021-07-02,-0.00, -6.12, 9.26, 2.04, 1.52, 7.19, suppf,
2021-07-03,-0.75, -5.66, 8.26, 2.02, 1.49, 7.13, suppf,
2021-07-04,0.15, -6.05, 18.30, 2.02, 1.48, 7.05, suppf,
2021-07-05,0.23, -5.58, 12.89, 2.01, 1.47, 7.01, suppf,
2021-07-06,0.72, -5.91, 10.35, 2.02, 1.50, 7.16, suppf,
2021-07-07,-1.02, -3.98, 13.40, 2.02, 1.50, 7.12, suppf,
2021-07-08,0.31, -5.23, 13.64, 2.02, 1.50, 7.10, suppf,
2021-07-09,0.74, -5.11, 15.41, 2.04, 1.51, 7.14, suppf,
2021-07-10,-1.70, -5.00, 11.28, 2.02, 1.51, 7.13, suppf,
2021-07-11,-0.66, -5.19, 14.87, 2.01, 1.49, 7.07, suppf,
2021-07-12,-0.68, -6.45, 12.26, 2.00, 1.50, 7.03, suppf,
2021-07-13,0.06, -5.80, 12.33, 2.00, 1.49, 7.05, suppf,
2021-07-14,0.16, -6.15, 13.32, 2.01, 1.48, 7.01, suppf,
2021-07-15,1.20, -6.33, 9.28, 2.02, 1.50, 7.08, suppf,
2021-07-16,-0.05, -4.92, 17.28, 2.14, 1.58, 7.47, suppf,
2021-07-17,-0.98, -5.65, 7.01, 2.07, 1.50, 7.20, suppf,
2021-07-18,0.66, -5.32, 5.64, 2.08, 1.51, 7.26, suppf,
2021-07-19,0.17, -5.90, 4.85, 2.04, 1.52, 7.32, suppf,
2021-07-20,0.54, -4.84, 10.17, 2.02, 1.49, 7.08, suppf,
2021-07-21,0.06, -5.92, 11.73, 1.99, 1.48, 7.01, suppf,
2021-07-22,-0.53, -6.24, 12.72, 2.05, 1.53, 7.23, suppf,
2021-07-23,0.04, -5.13, 12.93, 2.06, 1.54, 7.27, suppf,
2021-07-24,-1.42, -6.39, 14.81, 2.02, 1.49, 7.12, suppf,
2021-07-25,0.43, -6.11, 13.58, 2.01, 1.48, 7.06, suppf,
2021-07-26,-0.18, -5.54, 12.77, 2.00, 1.48, 6.99, suppf,
2021-07-27,0.27, -5.04, 18.22, 2.00, 1.49, 7.06, suppf,
2021-07-28,1.00, -7.57, 6.46, 2.04, 1.51, 7.26, suppf,
2021-07-29,0.96, -6.00, 8.69, 2.05, 1.53, 7.33, suppf,
2021-07-30,-0.27, -5.39, 15.33, 2.09, 1.54, 7.35, suppf,
2021-07-31,1.71, -5.72, 3.59, 2.02, 1.49, 7.10, suppf,
2021-08-01,0.00, -6.03, 11.39, 2.00, 1.48, 7.02, suppf,
2021-08-02,-0.62, -7.52, 6.87, 2.01, 1.49, 7.08, suppf,
2021-08-03,-0.21, -5.85, 1.85, 2.01, 1.50, 7.09, suppf,
2021-08-04,-1.48, -6.61, 11.57, 2.02, 1.50, 7.13, suppf,
2021-08-05,-1.98, -5.27, 14.28, 2.02, 1.50, 7.14, suppf,
2021-08-06,-0.79, -5.83, 10.71, 2.08, 1.51, 7.28, suppf,
2021-08-07,-0.28, -6.15, 12.23, 2.03, 1.52, 7.23, suppf,
2021-08-08,-0.98, -6.14, 23.30, 2.04, 1.54, 7.32, suppf,
2021-08-09,-1.52, -6.15, 18.20, 2.02, 1.50, 7.14, suppf,
2021-08-10,-1.94, -5.67, 14.65, 2.03, 1.51, 7.16, suppf,
2021-08-11,-0.65, -5.80, 17.96, 2.01, 1.50, 7.08, suppf,
2021-08-12,0.39, -5.40, 18.92, 2.01, 1.48, 7.05, suppf,
2021-08-13,0.47, -5.24, 10.35, 2.02, 1.50, 7.16, suppf,
2021-08-14,0.57, -6.27, 10.83, 2.00, 1.49, 7.06, suppf,
2021-08-15,-0.54, -5.88, 11.38, 2.01, 1.50, 7.10, suppf,
2021-08-16,-0.07, -5.75, 13.51, 2.03, 1.52, 7.27, suppf,
2021-08-17,-1.28, -5.56, 20.94, 2.09, 1.54, 7.43, suppf,
2021-08-18,-0.28, -6.37, 13.81, 2.03, 1.50, 7.13, suppf,
2021-08-19,-0.24, -6.78, 11.33, 2.05, 1.57, 7.42, suppf,
2021-08-20,-1.05, -4.88, 13.51, 2.02, 1.53, 7.27, suppf,
2021-08-21,-0.96, -5.26, 14.09, 2.04, 1.57, 7.43, suppf,
2021-08-22,-0.03, -6.03, 17.76, 2.02, 1.52, 7.18, suppf,
2021-08-23,0.21, -5.99, 10.92, 2.03, 1.53, 7.23, suppf,
2021-08-24,-0.12, -6.28, 12.25, 2.01, 1.49, 7.08, suppf,
2021-08-25,-0.94, -6.12, 13.42, 2.02, 1.50, 7.15, suppf,
2021-08-26,-0.83, -6.04, 19.89, 2.03, 1.52, 7.23, suppf,
2021-08-27,-0.42, -5.64, 11.70, 2.03, 1.51, 7.14, suppf,
2021-08-28,-0.54, -7.72, 12.52, 2.02, 1.51, 7.17, suppf,
2021-08-29,-1.66, -5.63, 18.47, 2.01, 1.49, 7.06, suppf,
2021-08-30,-1.00, -6.31, 17.40, 2.01, 1.50, 7.14, suppf,
2021-08-31,-0.41, -6.69, 18.69, 2.04, 1.51, 7.18, suppf,
2021-09-01,-0.97, -6.97, 17.22, 2.02, 1.49, 7.09, suppf,
2021-09-02,-1.27, -6.73, 15.69, 2.03, 1.54, 7.27, suppf,
2021-09-03,-1.92, -5.97, 20.38, 2.08, 1.55, 7.32, suppf,
2021-09-04,-0.59, -7.49, 15.69, 2.15, 1.57, 7.52, suppf,
2021-09-05,-1.08, -6.21, 17.28, 2.10, 1.54, 7.44, suppf,
2021-09-06,0.19, -6.70, 12.13, 2.03, 1.51, 7.18, suppf,
2021-09-07,-1.16, -5.33, 19.60, 2.04, 1.51, 7.24, suppf,
2021-09-08,-1.28, -8.06, 18.07, 2.04, 1.50, 7.20, suppf,
2021-09-09,-1.66, -6.24, 21.62, 2.02, 1.50, 7.12, suppf,
2021-09-10,-0.70, -7.62, 19.42, 2.01, 1.50, 7.12, suppf,
2021-09-11,0.32, -6.55, 13.34, 2.01, 1.50, 7.11, suppf,
2021-09-12,-0.90, -7.28, 15.10, 2.01, 1.49, 7.07, suppf,
2021-09-13,-1.29, -5.85, 24.19, 2.00, 1.50, 7.10, suppf,
2021-09-14,-1.06, -6.56, 15.05, 2.04, 1.51, 7.24, suppf,
2021-09-15,-0.27, -7.22, 22.66, 2.01, 1.49, 7.08, suppf,
2021-09-16,-0.84, -6.60, 20.59, 2.01, 1.50, 7.14, suppf,
2021-09-17,-1.04, -6.72, 22.11, 2.02, 1.50, 7.14, suppf,
2021-09-18,-1.36, -5.88, 21.15, 2.05, 1.52, 7.29, suppf,
2021-09-19,-0.03, -5.73, 19.29, 2.03, 1.52, 7.26, suppf,
2021-09-20,-1.21, -5.27, 18.26, 2.02, 1.50, 7.15, suppf,
2021-09-21,-1.04, -5.02, 16.23, 2.03, 1.50, 7.19, suppf,
2021-09-22,-0.71, -6.71, 12.28, 2.05, 1.53, 7.34, suppf,
2021-09-23,-2.03, -7.08, 16.53, 2.01, 1.49, 7.10, suppf,
2021-09-24,-0.67, -5.65, 14.77, 2.14, 1.59, 7.67, suppf,
2021-09-25,-1.30, -7.06, 17.06, 2.02, 1.51, 7.20, suppf,
2021-09-26,-0.83, -6.57, 23.74, 2.04, 1.53, 7.33, suppf,
2021-09-27,-1.17, -5.61, 23.51, 2.05, 1.57, 7.49, suppf,
2021-09-28,1.58, -7.89, 11.10, 2.02, 1.53, 7.28, suppf,
2021-09-29,-1.55, -5.57, 19.78, 2.02, 1.51, 7.20, suppf,
2021-09-30,-0.78, -4.88, 17.82, 2.06, 1.53, 7.38, suppf,
2021-10-01,-1.72, -6.73, 17.60, 2.01, 1.50, 7.15, suppf,
2021-10-02,-1.30, -5.00, 17.35, 2.04, 1.53, 7.36, suppf,
2021-10-03,-0.72, -6.69, 15.91, 2.04, 1.53, 7.32, suppf,
2021-10-04,-0.05, -7.58, 18.77, 2.02, 1.51, 7.22, suppf,
2021-10-05,0.03, -5.46, 14.62, 2.06, 1.53, 7.41, suppf,
2021-10-06,0.01, -6.68, 16.05, 2.06, 1.54, 7.38, suppf,
2021-10-07,-1.20, -6.88, 17.95, 2.02, 1.53, 7.26, suppf,
2021-10-08,-1.22, -5.86, 14.04, 2.02, 1.51, 7.20, suppf,
2021-10-09,-0.35, -7.33, 13.24, 2.03, 1.53, 7.24, suppf,
2021-10-10,0.04, -4.58, 22.46, 2.09, 1.56, 7.49, suppf,
2021-10-11,-2.01, -6.04, 17.39, 2.03, 1.51, 7.23, suppf,
2021-10-12,-1.89, -5.21, 21.18, 2.02, 1.51, 7.22, suppf,
2021-10-13,-1.49, -5.66, 22.58, 2.05, 1.53, 7.33, suppf,
2021-10-14,-0.84, -5.62, 17.91, 2.05, 1.53, 7.32, suppf,
2021-10-15,-1.02, -6.89, 15.87, 2.01, 1.50, 7.13, suppf,
2021-10-16,-1.16, -4.92, 20.90, 2.02, 1.49, 7.13, suppf,
2021-10-17,0.78, -5.59, 18.63, 2.03, 1.50, 7.19, suppf,
2021-10-18,-1.14, -6.23, 23.80, 2.05, 1.53, 7.29, suppf,
2021-10-19,-0.08, -7.23, 14.78, 2.03, 1.53, 7.27, suppf,
2021-10-20,0.93, -6.90, 18.24, 2.06, 1.56, 7.34, suppf,
2021-10-21,0.63, -6.10, 19.63, 2.10, 1.58, 7.45, suppf,
2021-10-22,0.58, -6.03, 16.49, 2.03, 1.51, 7.19, suppf,
2021-10-23,0.80, -5.73, 25.58, 2.06, 1.52, 7.27, suppf,
2021-10-24,-1.02, -7.40, 27.59, 2.06, 1.56, 7.39, suppf,
2021-10-25,3.29, -5.53, 27.34, 2.01, 1.51, 7.15, suppf,
2021-10-26,-0.40, -4.86, 26.56, 2.05, 1.54, 7.28, suppf,
2021-10-27,-1.44, -4.83, 20.83, 2.10, 1.52, 7.32, suppf,
2021-10-28,1.69, -4.66, 18.86, 2.11, 1.55, 7.46, suppf,
2021-10-29,-2.06, -4.38, 20.65, 2.09, 1.53, 7.38, suppf,
2021-10-30,1.94, -7.22, 18.44, 2.06, 1.51, 7.28, suppf,
2021-10-31,-0.80, -6.35, 20.05, 2.08, 1.51, 7.26, suppf,
2021-11-01,0.69, -5.69, 16.35, 2.15, 1.55, 7.49, suppf,
2021-11-02,-2.56, -6.37, 20.74, 2.11, 1.55, 7.47, suppf,
2021-11-03,0.19, -3.42, 15.02, 2.11, 1.56, 7.51, suppf,
2021-11-04,0.69, -4.21, 18.63, 2.16, 1.56, 7.68, suppf,
2021-11-05,-0.77, -4.76, 14.24, 2.08, 1.53, 7.31, suppf,
2021-11-06,-0.10, -5.70, 17.80, 2.09, 1.52, 7.34, suppf,
2021-11-07,-1.36, -5.10, 16.71, 2.10, 1.54, 7.41, suppf,
2021-11-08,1.24, -5.45, 15.64, 2.05, 1.54, 7.34, suppf,
2021-11-09,0.51, -5.76, 23.90, 2.05, 1.54, 7.33, suppf,
2021-11-10,-0.57, -4.68, 16.33, 2.00, 1.50, 7.12, suppf,
2021-11-11,1.81, -4.16, 4.44, 2.08, 1.58, 7.61, suppf,
2021-11-12,3.16, -3.39, 5.79, 2.09, 1.55, 7.43, suppf,
2021-11-13,-0.57, -3.00, 12.29, 2.11, 1.57, 7.44, suppf,
2021-11-14,1.04, -1.21, 9.22, 2.11, 1.57, 7.46, suppf,
2021-11-15,-0.80, -3.96, 19.43, 2.05, 1.58, 7.48, suppf,
2021-11-16,-1.44, -3.19, 5.57, 2.02, 1.53, 7.24, suppf,
2021-11-17,-1.54, -5.20, 5.34, 2.02, 1.50, 7.16, suppf,
2021-11-18,-0.50, -7.25, 10.81, 2.07, 1.54, 7.44, suppf,
2021-11-19,-0.02, -2.43, 9.50, 2.03, 1.50, 7.15, suppf,
2021-11-20,-1.32, -3.97, 4.19, 2.01, 1.50, 7.12, suppf,
2021-11-21,-1.88, -4.00, 9.32, 2.02, 1.52, 7.19, suppf,
2021-11-22,-0.89, -4.68, -0.00, 2.02, 1.52, 7.21, suppf,
2021-11-23,-1.52, -5.28, 6.59, 2.07, 1.54, 7.41, suppf,
2021-11-24,-1.71, -4.03, 11.76, 2.04, 1.52, 7.24, suppf,
2021-11-25,-1.14, -3.96, 6.48, 2.04, 1.53, 7.34, suppf,
2021-11-26,0.06, -3.14, 1.99, 2.05, 1.53, 7.35, suppf,
2021-11-27,-1.29, -4.13, 6.66, 2.01, 1.52, 7.22, suppf,
2021-11-28,-1.14, -3.29, 9.73, 2.02, 1.52, 7.27, suppf,
2021-11-29,0.10, -2.40, 16.51, 2.09, 1.57, 7.53, suppf,
2021-11-30,-1.12, -3.69, 12.89, 2.03, 1.54, 7.33, suppf,
2021-12-01,-0.97, -4.31, 7.32, 2.03, 1.53, 7.35, suppf,
2021-12-02,-0.97, -4.41, 9.20, 2.07, 1.53, 7.38, suppf,
2021-12-03,0.00, -5.78, 3.75, 2.13, 1.56, 7.58, suppf,
2021-12-04,-0.46, -4.61, 6.26, 2.09, 1.52, 7.38, suppf,
2021-12-05,-2.12, -4.04, 8.91, 2.06, 1.53, 7.43, suppf,
2021-12-06,-1.29, -4.17, 16.20, 2.11, 1.56, 7.65, suppf,
2021-12-07,-0.42, -5.89, 11.84, 2.07, 1.52, 7.40, suppf,
2021-12-08,-0.48, -4.17, 16.95, 2.07, 1.54, 7.48, suppf,
2021-12-09,-0.36, -5.09, 10.91, 2.18, 1.55, 7.42, suppf,
2021-12-10,-1.41, -2.72, 6.57, 2.22, 1.55, 7.57, suppf,
2021-12-11,0.23, -3.91, 23.36, 2.10, 1.53, 7.42, suppf,
2021-12-12,-0.32, -6.44, 20.67, 2.06, 1.52, 7.31, suppf,
2021-12-13,0.03, -5.97, 15.16, 2.04, 1.51, 7.25, suppf,
2021-12-14,0.02, -5.59, 14.23, 2.08, 1.52, 7.39, suppf,
2021-12-15,0.02, -3.49, 16.12, 2.09, 1.56, 7.53, suppf,
2021-12-16,-0.49, -4.07, 16.88, 2.08, 1.55, 7.42, suppf,
2021-12-17,0.05, -3.99, 15.40, 2.09, 1.56, 7.50, suppf,
2021-12-18,-0.60, -3.43, 9.27, 2.11, 1.58, 7.52, suppf,
2021-12-19,-0.83, -4.27, 9.90, 2.07, 1.55, 7.38, suppf,
2021-12-20,0.17, -4.26, 17.67, 2.08, 1.54, 7.41, suppf,
2021-12-21,-2.00, -3.19, 13.82, 2.09, 1.55, 7.47, suppf,
2021-12-22,0.84, -4.19, 13.94, 2.12, 1.57, 7.56, suppf,
2021-12-23,-0.15, -5.93, 17.81, 2.10, 1.56, 7.48, suppf,
2021-12-24,0.26, -3.82, 16.53, 2.08, 1.55, 7.42, suppf,
2021-12-25,0.09, -4.68, 17.70, 2.08, 1.56, 7.46, suppf,
2021-12-26,-0.67, -3.53, 18.51, 2.08, 1.55, 7.43, suppf,
2021-12-27,-1.05, -2.06, 19.20, 2.08, 1.54, 7.42, suppf,
2021-12-28,-0.10, -2.13, 17.67, 2.06, 1.52, 7.32, suppf,
2021-12-29,0.03, -4.12, 15.51, 2.05, 1.52, 7.31, suppf,
2021-12-30,1.52, -3.20, 19.85, 2.06, 1.53, 7.36, suppf,
2021-12-31,0.73, -3.57, 9.43, 2.05, 1.52, 7.31, suppf,
2022-01-01,-1.05, -2.21, 16.81, 2.07, 1.51, 7.32, suppf,
2022-01-02,-0.24, -3.73, 10.72, 2.09, 1.52, 7.41, suppf,
2022-01-03,0.39, -4.86, 5.95, 2.09, 1.53, 7.41, suppf,
2022-01-04,1.73, -4.54, -0.45, 2.08, 1.52, 7.38, suppf,
2022-01-05,1.62, -2.96, 5.69, 2.09, 1.53, 7.44, suppf,
2022-01-06,2.10, 0.39, 11.48, 2.09, 1.53, 7.44, suppf,
2022-01-07,1.30, -3.18, 4.34, 2.10, 1.54, 7.44, suppf,
2022-01-08,-0.06, -1.90, 11.66, 2.09, 1.52, 7.40, suppf,
2022-01-09,-0.37, -2.49, 2.56, 2.23, 1.58, 7.82, suppf,
2022-01-10,0.77, -0.48, -0.67, 2.10, 1.54, 7.51, suppf,
2022-01-11,1.02, -0.19, 5.99, 2.09, 1.54, 7.47, suppf,
2022-01-12,1.06, 0.83, 7.15, 2.10, 1.54, 7.46, suppf,
2022-01-13,1.00, -1.38, 9.56, 2.08, 1.53, 7.44, suppf,
2022-01-14,-1.05, -1.02, 6.23, 2.07, 1.51, 7.34, suppf,
2022-01-15,-0.29, -0.76, 0.00, 2.07, 1.51, 7.32, suppf,
2022-01-16,-0.05, -0.47, 12.59, 2.07, 1.52, 7.38, suppf,
2022-01-17,0.55, -0.50, 11.09, 2.07, 1.52, 7.33, suppf,
2022-01-18,0.35, -1.88, 5.67, 2.05, 1.50, 7.22, suppf,
2022-01-19,0.18, -2.10, 1.61, 2.06, 1.50, 7.23, suppf,
2022-01-20,1.21, -1.25, -3.52, 2.09, 1.51, 7.37, suppf,
2022-01-21,-0.81, -0.50, 4.40, 2.07, 1.51, 7.33, suppf,
2022-01-22,-0.38, -0.32, 5.53, 2.07, 1.52, 7.39, suppf,
2022-01-23,0.43, -0.38, 10.13, 2.08, 1.51, 7.36, suppf,
2022-01-24,-0.68, -1.37, 12.96, 2.07, 1.51, 7.33, suppf,
2022-01-25,0.09, -3.18, 3.70, 2.07, 1.51, 7.35, suppf,
2022-01-26,0.17, -1.60, 8.50, 2.06, 1.50, 7.27, suppf,
2022-01-27,-0.22, -1.31, 5.67, 2.02, 1.49, 7.23, suppf,
2022-01-28,-1.16, -0.73, 9.65, 2.02, 1.49, 7.23, suppf,
2022-01-29,-0.65, -2.79, 3.98, 2.01, 1.49, 7.19, suppf,
2022-01-30,-0.66, -2.65, 7.72, 2.03, 1.49, 7.24, suppf,
2022-01-31,-0.02, -3.05, 6.05, 2.03, 1.50, 7.26, suppf,
2022-02-01,-0.62, -0.73, 6.58, 2.02, 1.50, 7.22, suppf,
2022-02-02,-0.53, -0.84, 8.40, 2.02, 1.50, 7.25, suppf,
2022-02-03,-0.86, -0.91, 4.08, 2.01, 1.49, 7.19, suppf,
2022-02-04,-0.58, -1.55, 0.49, 2.02, 1.52, 7.34, suppf,
2022-02-05,0.35, -2.52, -3.83, 2.02, 1.50, 7.27, suppf,
2022-02-06,-0.24, -2.24, 4.45, 2.03, 1.52, 7.37, suppf,
2022-02-07,-0.40, -3.06, 5.86, 2.07, 1.57, 7.67, suppf,
2022-02-08,-0.26, -1.52, 4.37, 2.05, 1.53, 7.36, suppf,
2022-02-09,-0.32, -1.83, 3.92, 2.04, 1.53, 7.33, suppf,
2022-02-10,-0.99, -2.88, 5.05, 2.01, 1.50, 7.20, suppf,
2022-02-11,-0.43, -3.03, 3.98, 2.02, 1.50, 7.21, suppf,
2022-02-12,-1.00, -1.80, 11.66, 2.02, 1.50, 7.24, suppf,
2022-02-13,-0.84, -2.00, 8.91, 2.02, 1.50, 7.24, suppf,
2022-02-14,-0.73, -2.38, 12.59, 2.03, 1.52, 7.25, suppf,
2022-02-15,-1.27, -2.55, 10.40, 2.08, 1.53, 7.40, suppf,
2022-02-16,0.66, -2.39, 9.36, 2.03, 1.50, 7.26, suppf,
2022-02-17,0.73, -1.97, 8.99, 2.01, 1.50, 7.20, suppf,
2022-02-18,-0.66, -1.86, 6.53, 2.04, 1.51, 7.33, suppf,
2022-02-19,-0.38, -3.14, 7.06, 2.02, 1.50, 7.24, suppf,
2022-02-20,0.25, -2.82, 4.57, 2.01, 1.50, 7.26, suppf,
2022-02-21,0.35, -4.15, 3.87, 2.02, 1.50, 7.25, suppf,
2022-02-22,0.52, -3.34, 8.42, 2.02, 1.51, 7.28, suppf,
2022-02-23,0.38, -3.80, 6.87, 2.02, 1.51, 7.29, suppf,
2022-02-24,0.40, -2.47, 5.55, 2.13, 1.56, 7.63, suppf,
2022-02-25,-0.16, -2.92, 2.85, 2.16, 1.56, 7.63, suppf,
2022-02-26,-0.66, -3.27, 10.53, 2.02, 1.51, 7.28, suppf,
2022-02-27,0.41, -2.07, 14.00, 2.02, 1.50, 7.21, suppf,
2022-02-28,1.76, -4.17, 11.57, 2.03, 1.51, 7.34, suppf,
2022-03-01,1.17, -1.16, 3.71, 2.02, 1.51, 7.33, suppf,
2022-03-02,1.02, -2.69, 0.40, 2.04, 1.51, 7.37, suppf,
2022-03-03,-0.16, -2.42, 2.58, 2.00, 1.50, 7.23, suppf,
2022-03-04,-0.64, -2.74, 3.09, 2.02, 1.51, 7.31, suppf,
2022-03-05,-1.36, -3.10, 2.28, 2.03, 1.50, 7.27, suppf,
2022-03-06,0.15, -2.04, 3.76, 2.01, 1.49, 7.20, suppf,
2022-03-07,-0.94, -1.94, -2.44, 2.01, 1.49, 7.23, suppf,
2022-03-08,0.12, -3.81, 0.93, 2.01, 1.48, 7.18, suppf,
2022-03-09,-0.51, -2.71, 5.02, 2.02, 1.50, 7.23, suppf,
2022-03-10,1.39, -3.34, 5.02, 2.09, 1.50, 7.24, suppf,
2022-03-11,-0.40, -2.35, 10.01, 2.09, 1.51, 7.29, suppf,
2022-03-12,-0.01, -2.31, 7.89, 2.04, 1.51, 7.33, suppf,
2022-03-13,1.13, -3.07, 13.90, 2.02, 1.50, 7.26, suppf,
2022-03-14,-0.14, -3.81, 7.04, 2.02, 1.50, 7.25, suppf,
2022-03-15,1.68, -2.33, 6.94, 2.03, 1.51, 7.29, suppf,
2022-03-16,-0.13, -2.58, 13.33, 2.01, 1.48, 7.16, suppf,
2022-03-17,0.68, -2.39, 6.74, 2.04, 1.54, 7.38, suppf,
2022-03-18,-0.45, -2.72, 7.75, 2.03, 1.52, 7.31, suppf,
2022-03-19,1.05, -3.56, 14.13, 2.01, 1.49, 7.22, suppf,
2022-03-20,-0.49, -1.80, 10.57, 2.02, 1.50, 7.26, suppf,
2022-03-21,0.36, -2.33, -1.05, 2.01, 1.49, 7.19, suppf,
2022-03-22,0.64, -1.80, 5.16, 2.01, 1.49, 7.19, suppf,
2022-03-23,0.64, -1.34, 3.99, 2.04, 1.50, 7.31, suppf,
2022-03-24,-0.41, -3.11, 12.78, 2.04, 1.51, 7.31, suppf,
2022-03-25,-0.16, -3.09, 9.69, 2.06, 1.53, 7.42, suppf,
2022-03-26,-0.06, -2.54, 8.36, 2.02, 1.49, 7.24, suppf,
2022-03-27,0.23, -3.63, 8.05, 2.01, 1.49, 7.22, suppf,
2022-03-28,-1.14, -3.44, 14.62, 2.09, 1.54, 7.46, suppf,
2022-03-29,0.48, -2.46, 13.39, 2.01, 1.48, 7.17, suppf,
2022-03-30,0.78, -2.70, 12.88, 2.03, 1.51, 7.34, suppf,
2022-03-31,-0.56, -2.79, 9.16, 2.02, 1.50, 7.30, suppf,
2022-04-01,0.29, -3.15, 8.71, 2.01, 1.49, 7.22, suppf,
2022-04-02,-0.35, -3.24, 10.87, 2.01, 1.49, 7.20, suppf,
2022-04-03,-0.18, -2.19, 11.93, 2.01, 1.48, 7.17, suppf,
2022-04-04,0.41, -2.17, 16.64, 2.02, 1.50, 7.27, suppf,
2022-04-05,-0.46, -2.35, 10.93, 2.03, 1.51, 7.30, suppf,
2022-04-06,-0.74, -1.58, 7.45, 2.01, 1.49, 7.23, suppf,
2022-04-07,-0.85, -1.74, 9.45, 2.00, 1.50, 7.27, suppf,
2022-04-08,-1.26, -2.68, 16.67, 2.10, 1.59, 7.66, suppf,
2022-04-09,-0.19, -0.39, 11.55, 2.03, 1.50, 7.27, suppf,
2022-04-10,-0.52, -3.19, 9.69, 2.02, 1.49, 7.27, suppf,
2022-04-11,-1.31, -3.66, 10.77, 2.07, 1.57, 7.57, suppf,
2022-04-12,-1.07, -2.03, 15.11, 2.05, 1.52, 7.43, suppf,
2022-04-13,-0.48, -1.62, 1.08, 2.00, 1.50, 7.20, suppf,
2022-04-14,-1.18, -1.17, 12.35, 2.01, 1.49, 7.19, suppf,
2022-04-15,-1.33, -2.93, 11.99, 2.04, 1.53, 7.36, suppf,
2022-04-16,-0.34, -2.93, 2.52, 2.04, 1.55, 7.44, suppf,
2022-04-17,0.27, -2.11, -0.00, 2.03, 1.51, 7.38, suppf,
2022-04-18,1.40, -2.97, 1.23, 2.01, 1.50, 7.23, suppf,
2022-04-19,0.45, -2.67, 3.32, 2.00, 1.49, 7.15, suppf,
2022-04-20,0.06, -2.71, 10.52, 2.01, 1.48, 7.12, suppf,
2022-04-21,1.31, -3.20, 12.73, 2.07, 1.51, 7.41, suppf,
2022-04-22,0.36, -2.56, 1.52, 2.08, 1.52, 7.45, suppf,
2022-04-23,1.01, -2.15, -1.06, 2.01, 1.50, 7.24, suppf,
2022-04-24,-0.85, -1.29, 4.88, 2.01, 1.49, 7.23, suppf,
2022-04-25,0.23, -1.39, 6.71, 2.01, 1.49, 7.22, suppf,
2022-04-26,-0.41, -2.01, 5.22, 2.02, 1.49, 7.19, suppf,
2022-04-27,-0.57, -2.35, 5.95, 2.19, 1.54, 7.47, suppf,
2022-04-28,-1.30, -2.17, 6.14, 2.16, 1.55, 7.44, suppf,
2022-04-29,-0.69, -1.14, 12.81, 2.00, 1.49, 7.16, suppf,
2022-04-30,0.49, -2.67, 1.56, 2.01, 1.48, 7.17, suppf,
2022-05-01,-0.86, -1.65, 4.33, 2.02, 1.49, 7.19, suppf,
2022-05-02,0.02, -2.96, -2.14, 2.10, 1.53, 7.47, suppf,
2022-05-03,-1.26, -2.09, 3.58, 2.14, 1.57, 7.55, suppf,
2022-05-04,-0.58, -1.98, 7.48, 2.12, 1.58, 7.55, suppf,
2022-05-05,-0.59, -1.59, 6.79, 2.03, 1.51, 7.31, suppf,
2022-05-06,0.98, -2.42, 10.54, 2.03, 1.51, 7.32, suppf,
2022-05-07,-0.65, -1.49, 13.98, 2.02, 1.49, 7.23, suppf,
2022-05-08,-1.41, -2.68, 10.85, 2.05, 1.51, 7.33, suppf,
2022-05-09,-1.11, -2.54, 12.29, 2.03, 1.50, 7.26, suppf,
2022-05-10,0.76, -1.39, 10.79, 2.00, 1.50, 7.21, suppf,
2022-05-11,-0.03, -1.90, 3.16, 2.00, 1.49, 7.19, suppf,
2022-05-12,-0.22, -0.92, 4.57, 2.02, 1.51, 7.25, suppf,
2022-05-13,0.20, -1.91, 6.84, 2.04, 1.51, 7.32, suppf,
2022-05-14,1.47, -1.63, 7.08, 2.03, 1.51, 7.28, suppf,
2022-05-15,1.21, -1.68, 4.93, 2.02, 1.51, 7.30, suppf,
2022-05-16,0.41, -1.56, 4.76, 2.00, 1.50, 7.21, suppf,
2022-05-17,1.15, -2.48, -0.88, 2.00, 1.49, 7.15, suppf,
2022-05-18,0.63, -1.80, 3.92, 2.04, 1.51, 7.31, suppf,
2022-05-19,0.76, -1.41, 12.25, 2.07, 1.56, 7.45, suppf,
2022-05-20,-0.04, -1.99, 2.61, 2.06, 1.55, 7.41, suppf,
2022-05-21,0.58, -2.99, 4.32, 2.00, 1.50, 7.20, suppf,
2022-05-22,0.03, -2.03, 4.70, 2.00, 1.49, 7.16, suppf,